User: anonymous   Login
Location: Innsbruck
(47.2657°N, 11.3914°E)
Time: 16:53:28
(UTC+01:00)
Language:

CUBEBUG 2 - Orbit

View from above orbital plane
View from above orbital plane
View from above satellite
View from above satellite

Ground track
Ground track

The orbit data is extracted from the following two-line orbital elements,

1 39440U 13066AA  21332.13532477  .00000561  00000-0  83651-4 0  9998
2 39440  97.6993 293.6009 0081011  64.9380 296.0212 14.76399860431772
Epoch (UTC): 28 November 2021 03:14:52
Eccentricity: 0.0081011
inclination: 97.6993°
perigee height: 584 km
apogee height: 697 km
right ascension of ascending node: 293.6009°
argument of perigee: 64.9380°
revolutions per day: 14.76399860
mean anomaly at epoch: 296.0212°
orbit number at epoch: 43177

The dashed part of the orbit path shows where the satellite is in the earth's shadow,  

DLR